Weather History for KLXV - June, 2013

Change the Weather History Date:

Sunday, June 9, 2013

  Actual Average Record
Temperature  
Mean Temperature 55 °F -  
Max Temperature 73 °F 63 °F 77 °F (2002)
Min Temperature 36 °F 32 °F 25 °F (1979)
Degree Days  
Heating Degree Days 10 18  
Month to date heating degree days 142 168  
Since 1 June heating degree days 142 168  
Since 1 July heating degree days 10899 10922  
Cooling Degree Days 0 0  
Month to date cooling degree days 0 0  
Year to date cooling degree days 0 0  
Since 1 June cooling degree days 0 0  
Growing Degree Days 5 (Base 50)    
Moisture  
Dew Point 24 °F    
Average Humidity 36    
Maximum Humidity 59    
Minimum Humidity 13    
Precipitation  
Precipitation 0.00 in 0.03 in 0.30 in (1979)
Month to date precipitation 0.01 0.26  
Year to date precipitation 7.31 4.39  
Sea Level Pressure  
Sea Level Pressure 29.87 in    
Wind  
Wind Speed 8 mph (NNW)    
Max Wind Speed 22 mph    
Max Gust Speed 31 mph    
Visibility 10 miles    
Events      
T = Trace of Precipitation, MM = Missing Value Source: NWS Daily Summary

Daily Weather History Graph

Daily Weather History Graph

Search for Another Location

Airport or City:

Trip Planner

Search our weather history database for the weather conditions in past years. The results will help you decide how hot, cold, wet, or windy it might be!

Date:

Astronomy

Jun. 09, 2013 Rise Set
Actual Time 5:38 AM MDT 8:30 PM MDT
Civil Twilight 5:06 AM MDT 9:02 PM MDT
Nautical Twilight 4:26 AM MDT 9:43 PM MDT
Astronomical Twilight 3:39 AM MDT 10:29 PM MDT
Moon 6:37 AM MDT (6/9) 9:20 PM MDT (6/9)
Length of Visible Light 15h 56m
Length of Day
14h 52m
New Moon, 1% of the Moon is Illuminated
Jun 9
New Moon
Jun 16
First Quarter
Jun 23
Full
Jun 29
Last Quarter
Jul 8
New

Hourly Weather History & Observations

Time (MDT) Temp. Windchill Dew Point Humidity Pressure Visibility Wind Dir Wind Speed Gust Speed Precip Events Conditions
12:53 AM 44.1 °F 42.5 °F 28.0 °F 53% 29.83 in 10.0 mi NE 3.5 mph - N/A   Clear
1:53 AM 42.1 °F 38.4 °F 27.0 °F 55% 29.85 in 10.0 mi North 5.8 mph - N/A   Clear
2:53 AM 46.0 °F 43.9 °F 26.1 °F 46% 29.83 in 10.0 mi NW 4.6 mph - N/A   Clear
3:53 AM 48.9 °F - 21.9 °F 35% 29.81 in 10.0 mi North 15.0 mph - N/A   Clear
4:53 AM 41.0 °F - 24.1 °F 51% 29.87 in 10.0 mi Calm Calm - N/A   Clear
5:53 AM 37.9 °F - 24.1 °F 57% 29.91 in 10.0 mi Calm Calm - N/A   Clear
6:53 AM 43.0 °F 39.5 °F 26.1 °F 51% 29.92 in 10.0 mi NE 5.8 mph - N/A   Clear
7:53 AM 51.1 °F - 26.1 °F 38% 29.90 in 10.0 mi NNW 4.6 mph - N/A   Clear
8:53 AM 55.0 °F - 24.1 °F 30% 29.91 in 10.0 mi NNW 5.8 mph - N/A   Clear
9:53 AM 59.0 °F - 24.1 °F 26% 29.91 in 10.0 mi North 8.1 mph - N/A   Clear
10:53 AM 63.0 °F - 23.0 °F 22% 29.88 in 10.0 mi NW 13.8 mph 24.2 mph N/A   Clear
11:53 AM 66.9 °F - 21.9 °F 18% 29.90 in 10.0 mi NW 13.8 mph 19.6 mph N/A   Clear
12:53 PM 69.1 °F - 21.9 °F 17% 29.85 in 10.0 mi WNW 18.4 mph 25.3 mph N/A   Clear
1:53 PM 69.1 °F - 18.0 °F 14% 29.87 in 10.0 mi NW 15.0 mph 24.2 mph N/A   Clear
2:53 PM 71.1 °F - 17.1 °F 13% 29.83 in 10.0 mi NNW 17.3 mph 31.1 mph N/A   Clear
3:53 PM 71.1 °F - 23.0 °F 16% 29.81 in 10.0 mi Variable 5.8 mph 18.4 mph N/A   Clear
4:53 PM 73.0 °F - 21.9 °F 15% 29.85 in 10.0 mi NW 15.0 mph 21.9 mph N/A   Clear
5:53 PM 71.1 °F - 23.0 °F 16% 29.87 in 10.0 mi NW 11.5 mph 19.6 mph N/A   Clear
6:53 PM 70.0 °F - 21.9 °F 16% 29.86 in 10.0 mi NNW 9.2 mph 18.4 mph N/A   Clear
7:53 PM 66.9 °F - 23.0 °F 19% 29.84 in 10.0 mi West 8.1 mph - N/A   Clear
8:53 PM 59.0 °F - 25.0 °F 27% 29.88 in 10.0 mi Calm Calm - N/A   Clear
9:53 PM 52.0 °F - 26.1 °F 37% 29.91 in 10.0 mi Calm Calm - N/A   Clear
10:53 PM 48.0 °F - 27.0 °F 44% 29.91 in 10.0 mi NE 4.6 mph - N/A   Clear
11:53 PM 48.0 °F - 26.1 °F 42% 29.88 in 10.0 mi Calm Calm - N/A   Clear